Theta_e
301 300 300 300 300 299 299 299 299 299 299 299 299 299 302 305 303 302 304 304 303 302 300 298 298 298 298 298 298 298 298 299 300 300 300 299 298 296 296 296 296 295 296 297 297 298 299 299 300 301 300 300 300 300 299 299 299 298 298 298 296 296 297 298 297 297 297 297 297 298 298 298 298 298
300 300 300 299 299 299 299 298 298 298 298 298 298 298 299 300 298 298 300 300 300 300 298 298 298 298 298 298 298 298 298 299 300 300 299 298 297 296 296 296 296 295 296 297 297 298 299 300 300 300 300 300 300 300 299 299 299 298 298 298 296 296 296 297 297 297 297 297 297 298 298 298 298 298
300 299 299 299 299 299 298 298 298 298 298 298 298 298 298 298 298 298 298 299 299 299 298 298 298 297 298 298 298 298 299 299 299 299 298 297 296 296 296 296 295 295 296 296 297 298 299 300 300 300 300 300 300 300 299 299 299 298 298 297 296 295 296 297 297 297 297 297 297 298 298 298 298 298
299 299 299 299 299 298 298 298 298 298 298 298 298 298 298 298 298 298 298 298 298 298 298 298 297 297 297 297 298 298 299 299 299 298 297 296 296 296 296 296 295 295 296 297 297 298 299 300 301 300 300 300 300 300 300 299 298 298 297 296 295 295 295 296 297 297 297 297 297 297 297 298 298 298
299 299 299 298 298 298 298 298 298 298 298 298 298 298 298 298 297 298 298 298 298 298 298 297 297 297 297 297 297 298 298 298 297 296 295 296 296 296 295 295 295 295 296 297 298 298 299 300 300 300 300 300 300 300 299 298 298 298 297 296 295 295 296 296 297 297 297 297 297 297 297 297 297 297
299 299 298 298 298 298 298 298 298 298 298 298 298 298 297 298 298 298 298 297 298 298 298 297 297 297 296 296 296 297 297 297 296 295 295 296 296 296 295 295 295 296 296 297 297 298 299 299 299 300 300 300 300 300 299 298 298 298 297 296 295 295 295 296 297 297 297 297 297 297 297 297 297 297
298 298 298 298 298 298 298 298 298 298 298 298 298 298 297 298 298 297 297 297 297 297 298 297 296 296 296 296 296 296 296 295 295 295 295 295 295 296 296 295 295 296 296 297 297 298 298 299 299 299 300 300 300 299 298 298 298 297 297 296 295 295 295 295 296 297 297 297 297 297 297 297 297 296
298 298 298 297 297 297 298 298 298 298 298 298 298 298 297 298 297 297 297 297 297 297 297 297 296 296 296 295 295 295 295 295 295 295 295 295 295 296 296 296 296 296 296 297 297 298 298 299 299 300 300 300 300 299 298 298 298 297 297 297 296 295 294 294 295 295 296 297 297 297 297 297 296 296
298 298 297 297 297 297 298 298 297 297 297 297 297 297 298 297 297 297 297 297 297 296 296 296 296 296 295 295 295 295 294 295 295 295 295 295 295 296 296 296 296 296 296 296 296 297 298 298 299 299 300 300 299 299 298 298 298 297 297 297 297 296 295 294 294 294 294 295 296 297 296 296 296 296
298 297 297 297 297 297 298 297 297 297 297 297 297 297 297 297 297 297 297 297 297 296 296 296 296 296 295 295 295 295 295 295 295 296 296 295 295 296 296 296 296 296 296 296 296 297 297 298 298 299 299 299 299 298 298 298 298 297 297 297 297 296 295 294 293 293 294 294 295 295 296 296 296 296
298 297 297 297 297 297 297 297 297 297 297 297 297 297 297 297 297 297 297 297 297 296 296 296 295 295 295 295 295 295 295 295 296 297 297 296 296 296 296 296 296 296 296 296 296 296 297 297 298 298 299 299 298 298 298 298 298 297 297 297 296 296 295 294 293 293 293 294 294 294 295 295 295 296
298 297 297 297 297 297 297 297 297 297 297 297 297 297 297 297 297 297 297 297 297 296 296 295 295 295 295 296 296 296 296 297 297 298 298 298 297 296 296 296 296 296 296 296 296 296 297 297 298 298 298 298 298 298 298 298 297 297 297 297 296 295 295 294 293 293 293 294 294 293 294 294 295 295
298 298 297 297 297 296 296 296 296 296 296 297 297 297 297 297 297 297 297 297 297 296 296 295 295 295 296 297 297 297 298 298 298 298 298 298 297 297 296 296 296 296 296 296 296 296 296 297 297 298 298 298 298 298 298 298 297 297 297 297 296 295 294 294 293 293 293 294 294 293 293 293 294 294
298 298 297 297 297 297 296 296 296 296 296 297 297 297 297 297 297 297 298 297 297 296 296 295 295 296 297 297 298 298 298 298 298 298 298 298 297 297 297 296 296 296 296 296 296 296 296 297 297 297 298 298 298 298 298 297 297 297 297 296 296 295 294 294 294 294 294 293 293 293 293 293 294 294
298 297 297 297 296 296 296 296 296 296 296 296 297 297 297 297 297 298 298 297 297 297 296 295 296 297 298 298 298 299 298 298 298 298 298 298 297 297 297 297 296 296 296 297 296 296 296 296 297 297 298 298 298 298 297 297 297 297 297 296 295 295 294 294 294 294 294 294 294 293 293 293 294 294
297 297 297 297 296 296 296 296 296 296 296 296 296 296 296 297 297 297 297 298 298 297 296 296 297 298 299 298 299 299 298 299 299 298 298 298 298 297 297 297 297 296 296 297 296 296 296 296 297 297 297 298 298 297 297 297 297 297 296 296 295 295 294 294 294 294 295 295 294 294 293 294 294 294
297 296 297 297 296 295 296 296 296 296 296 296 297 297 296 297 297 297 298 298 298 296 296 297 298 299 299 299 299 299 299 299 299 298 299 298 298 298 297 297 297 296 296 297 297 296 296 296 297 297 297 297 297 297 297 297 297 297 296 296 295 295 295 294 294 295 296 295 295 294 294 294 295 295
298 298 298 298 297 296 295 296 296 296 296 297 297 297 297 297 297 297 297 297 296 296 296 298 298 299 299 299 299 299 299 299 299 299 299 299 298 298 297 297 296 296 296 296 296 296 296 297 297 297 297 297 297 297 297 297 297 297 296 296 296 296 296 296 296 297 297 297 296 295 295 295 295 296
301 302 302 301 299 297 296 297 296 296 296 297 296 297 297 297 297 297 297 296 296 296 297 298 299 299 299 300 299 299 299 299 299 299 299 299 299 299 298 297 296 296 296 296 296 296 296 296 297 297 297 297 297 297 296 297 297 297 296 296 297 297 298 298 298 298 298 297 297 296 296 296 296 297
304 305 304 303 300 297 296 297 297 296 296 296 296 296 297 297 297 297 296 296 296 297 298 299 300 300 300 300 300 300 300 299 299 299 299 299 299 299 299 298 297 296 296 296 296 296 296 296 297 297 296 296 297 297 296 296 297 297 297 297 297 298 299 299 299 299 298 298 297 296 297 297 297 297
305 305 304 303 302 298 296 297 296 296 296 296 296 297 297 297 297 296 296 296 297 298 298 300 300 300 300 300 300 299 299 299 300 300 300 299 299 299 299 298 297 297 296 296 296 296 297 296 296 297 296 296 297 297 296 296 297 297 297 297 298 298 299 299 300 300 299 298 297 297 297 298 298 297
305 304 303 302 300 298 296 296 296 296 296 296 296 297 297 297 297 296 296 297 297 298 299 300 300 300 300 300 299 299 299 299 300 300 299 299 299 299 299 299 298 297 296 296 296 297 297 296 296 297 296 297 297 296 296 296 297 297 297 297 298 299 299 299 300 301 300 300 299 298 298 298 299 298
303 302 300 298 297 296 295 296 296 296 295 296 296 296 297 297 296 296 297 297 297 298 299 300 300 300 299 299 299 299 300 300 299 299 299 299 299 299 299 299 298 298 297 296 296 297 297 296 297 297 297 297 297 296 296 296 296 297 297 297 298 299 300 300 300 301 300 300 300 299 299 299 299 299
300 299 296 296 296 297 295 295 295 295 295 296 296 296 297 297 296 297 297 297 298 299 300 300 300 299 299 299 299 299 299 299 299 299 299 299 299 299 299 299 298 298 298 297 296 297 297 296 297 297 297 297 297 296 296 296 296 297 297 297 298 299 300 300 301 301 301 301 300 300 300 300 300 300
298 297 296 296 297 297 295 295 295 295 295 296 296 296 297 297 297 297 297 298 299 299 300 300 300 299 299 298 299 299 299 299 299 299 299 299 299 299 299 299 299 298 298 298 297 297 297 296 296 296 296 297 297 296 296 296 296 296 297 297 297 298 300 300 302 302 302 301 301 301 301 301 301 301
299 299 298 297 298 297 296 295 295 295 295 296 296 296 297 297 298 298 298 299 299 300 300 300 300 300 299 298 299 299 299 299 299 299 299 299 299 299 299 299 299 299 299 298 298 297 297 297 296 296 296 296 296 296 296 296 296 296 297 297 297 298 299 300 301 302 302 302 300 300 300 300 300 301
300 300 299 298 298 299 298 296 296 296 295 296 296 296 297 298 298 298 299 299 299 300 300 300 300 300 299 298 299 299 299 299 299 299 299 299 299 299 299 299 299 299 299 299 298 298 298 297 297 296 296 297 296 296 296 296 296 296 296 297 297 298 299 300 301 301 301 302 300 298 297 297 298 299
301 300 300 299 300 301 300 299 298 297 296 296 296 297 298 299 299 299 299 300 300 300 300 300 300 300 299 298 299 299 299 299 299 299 299 299 299 299 299 299 299 299 299 299 299 299 298 298 297 297 297 297 296 296 297 296 296 296 296 297 297 297 298 299 301 300 300 301 301 299 297 296 296 296
301 301 300 301 301 302 302 301 299 298 296 295 297 298 300 300 300 300 300 300 300 300 300 300 300 300 300 298 298 299 299 299 299 299 299 299 299 299 299 299 299 299 299 299 299 299 299 298 298 297 297 297 297 296 297 296 296 296 296 296 297 297 298 299 300 300 300 299 300 300 299 297 296 296
301 301 301 301 302 302 302 301 300 298 295 295 298 300 301 301 301 301 301 301 301 300 301 300 300 301 300 299 299 299 299 299 299 299 299 299 299 299 299 299 299 299 299 299 299 299 299 299 298 298 297 297 297 297 297 297 296 296 296 296 296 297 298 298 299 300 300 299 299 300 299 298 298 298
301 301 301 301 302 302 302 302 300 298 295 295 299 302 302 302 302 302 301 301 301 301 301 301 300 301 300 300 300 299 299 299 299 299 299 299 299 299 299 299 299 299 299 299 299 299 299 299 298 298 298 297 297 297 297 297 296 296 296 296 296 297 297 298 298 299 300 300 300 301 301 300 299 300
300 301 301 301 301 301 301 300 299 297 295 295 299 302 303 302 302 302 302 301 301 300 300 300 300 300 300 300 300 300 299 299 299 299 299 299 299 299 299 299 299 299 299 299 299 299 299 299 299 298 298 298 297 297 297 297 297 296 296 296 296 296 297 298 297 297 299 300 301 301 301 301 301 302
300 300 300 300 300 300 300 298 297 296 295 296 299 303 303 302 302 302 302 301 301 301 301 300 300 300 300 301 300 300 299 299 299 299 299 299 299 299 299 298 298 299 299 299 299 299 299 299 299 298 298 298 298 298 298 297 297 297 296 296 296 296 297 298 297 297 298 299 300 301 301 301 301 302
298 299 299 299 299 299 298 297 296 295 295 297 301 303 302 302 302 301 301 300 300 301 301 300 300 300 301 301 300 299 299 299 299 299 299 299 299 299 299 298 298 298 299 299 299 299 299 299 299 299 299 298 298 298 298 298 297 297 296 296 296 295 296 297 298 298 297 298 299 300 301 301 301 301
296 297 297 298 297 297 297 296 295 295 295 298 301 302 302 301 302 301 301 301 301 301 301 300 300 301 301 301 300 299 299 299 299 299 299 299 299 299 299 299 298 298 298 299 299 299 299 299 299 299 299 299 299 299 298 298 297 297 297 296 296 295 296 296 297 298 298 297 298 299 300 301 301 301
294 294 295 296 296 296 295 295 295 295 296 297 299 301 301 301 301 302 302 302 302 302 301 301 301 301 301 301 300 299 299 299 299 299 299 299 299 299 299 299 299 298 298 298 299 299 299 299 299 299 299 299 299 299 299 298 298 297 297 297 296 296 295 296 297 298 298 298 297 297 298 299 300 301
293 293 294 294 294 294 294 294 295 295 296 297 299 301 301 301 302 302 302 302 302 302 301 301 301 301 301 301 300 299 299 299 300 299 299 299 299 299 299 299 299 298 298 298 299 299 299 299 299 299 299 299 299 299 299 299 298 298 297 297 296 296 295 295 296 297 297 298 297 297 297 298 299 301
294 294 294 294 294 294 294 295 295 295 296 298 300 301 301 302 302 302 302 302 302 302 301 301 301 301 301 300 300 299 299 299 299 299 299 299 298 298 299 299 299 298 298 298 298 299 299 299 299 299 299 299 299 299 299 299 299 299 298 297 297 296 296 295 295 297 297 297 297 297 297 297 298 299
294 294 294 294 294 294 295 295 295 295 296 299 301 301 301 302 302 302 302 302 302 302 302 301 301 301 301 300 300 299 299 299 299 299 298 298 298 299 299 299 299 298 298 298 298 299 299 299 299 299 299 299 299 299 299 299 299 299 299 298 297 297 296 295 295 296 296 297 297 297 297 297 298 299
295 295 295 294 294 295 295 295 295 295 296 299 301 302 301 302 302 302 303 303 302 302 302 301 301 301 301 300 299 299 299 299 299 298 298 298 298 299 299 299 299 298 298 298 298 299 299 299 299 299 299 299 300 300 300 300 300 300 300 299 298 297 297 296 296 295 296 296 297 297 297 297 298 299
295 295 295 294 294 295 295 295 295 295 295 298 301 302 302 302 302 302 303 303 303 303 302 302 301 301 300 300 299 299 299 299 299 299 299 298 298 299 299 299 299 298 298 298 298 299 299 299 299 299 299 299 300 300 300 300 300 300 300 300 299 298 297 297 296 296 295 296 296 297 297 297 297 298
295 294 294 294 294 295 295 295 295 295 295 298 301 302 302 302 302 302 303 303 303 303 302 302 301 301 300 299 299 299 299 299 299 298 299 298 298 299 298 298 298 298 298 298 299 299 299 299 299 299 299 299 300 300 300 300 300 300 300 300 300 299 298 297 297 297 296 295 296 297 297 296 297 297
295 295 294 294 294 295 295 295 295 295 295 297 300 302 302 302 303 303 303 303 303 303 302 302 301 300 300 299 299 299 299 298 298 298 299 298 298 299 299 298 298 298 298 299 299 299 299 299 299 299 299 299 299 299 300 300 300 300 300 300 300 300 299 298 297 297 297 296 295 296 296 296 296 297
295 295 295 295 294 296 296 297 297 297 297 298 301 302 302 302 303 303 303 303 303 302 302 302 301 300 299 299 299 299 299 299 298 298 298 298 298 299 299 298 298 298 298 299 299 299 299 299 299 299 299 299 299 299 299 300 300 300 300 300 300 300 300 299 298 297 297 297 296 296 296 295 295 296
295 296 296 295 295 297 299 299 299 299 300 301 302 302 302 303 303 303 303 303 303 302 302 302 301 300 300 299 299 299 299 299 299 298 298 298 298 298 298 298 298 298 299 299 299 299 299 299 299 299 299 299 299 299 299 300 300 300 300 300 300 300 300 299 298 298 297 297 297 296 296 296 295 295
Wind_Speed
8 7 6 6 6 6 5 5 4 5 4 4 3 3 6 7 5 5 7 7 7 6 7 8 9 10 11 12 13 16 18 18 20 23 24 26 28 29 28 27 28 29 28 26 24 22 23 23 22 24 27 29 32 37 42 47 51 50 51 52 44 36 33 32 30 30 30 30 27 26 26 24 25 26
8 7 7 7 7 6 6 5 5 4 4 4 4 4 5 5 3 3 3 3 4 5 5 8 11 12 13 14 15 16 18 20 22 23 24 26 28 27 27 27 28 28 27 25 23 22 22 20 21 24 27 30 34 39 43 48 51 52 54 54 46 36 32 30 29 29 29 30 27 25 25 24 24 25
9 8 8 8 8 7 7 7 6 6 5 4 5 5 4 3 3 1 1 2 3 6 8 9 11 14 15 15 16 17 19 21 22 22 24 27 26 26 27 28 29 27 26 25 23 22 20 19 21 25 28 31 35 39 44 48 51 54 56 54 45 35 30 30 29 28 27 27 26 24 24 24 24 24
10 9 9 8 7 8 8 7 7 7 6 5 5 4 3 2 1 2 4 5 5 6 9 11 12 14 16 16 16 19 21 21 21 23 25 27 25 26 29 30 28 27 26 25 23 21 19 18 22 26 29 32 36 40 45 49 53 56 56 53 44 34 29 28 27 26 25 24 25 24 23 24 24 25
10 9 8 7 7 7 7 7 7 7 6 6 5 3 2 1 2 3 5 8 8 8 10 12 14 15 17 17 18 20 22 21 22 25 26 25 25 27 30 30 28 27 27 26 23 21 19 20 24 28 30 34 37 41 46 51 55 56 56 52 43 32 27 24 24 25 24 23 23 24 23 23 23 24
10 9 8 7 7 7 8 8 8 7 6 5 4 3 1 1 3 5 7 9 12 12 13 14 16 17 18 19 19 20 21 22 25 26 26 26 27 28 30 31 29 27 27 27 25 24 23 24 26 30 32 35 37 41 47 52 54 55 55 52 44 33 25 23 23 24 25 24 24 24 23 23 23 23
10 9 9 9 8 8 8 8 8 7 5 3 2 1 0 2 4 6 9 11 13 16 16 17 19 21 21 20 20 19 20 23 25 27 27 27 27 27 29 32 31 28 28 28 27 27 27 27 29 31 33 34 37 42 48 52 53 54 54 52 46 38 30 27 26 26 25 25 25 24 23 23 23 23
9 9 9 9 9 9 8 7 7 7 4 2 1 1 1 3 5 7 9 11 14 16 18 19 20 21 21 21 20 20 22 24 25 26 27 28 28 27 29 33 33 29 29 30 29 29 29 30 30 32 33 34 37 43 49 50 51 53 53 52 49 44 38 33 31 31 30 28 27 25 24 23 23 23
10 10 10 10 10 9 7 6 6 5 4 2 1 2 3 4 6 8 9 12 14 16 18 20 20 20 21 22 21 22 24 26 26 27 28 29 29 28 30 34 34 31 31 31 31 31 32 32 32 32 32 34 39 46 49 49 51 53 53 52 50 47 43 38 34 33 33 33 32 30 29 27 26 24
11 10 10 10 9 7 5 5 5 5 4 2 1 2 4 5 6 8 10 12 13 15 16 19 20 21 22 24 24 23 24 25 28 31 33 32 31 31 33 37 37 33 33 33 34 35 35 34 34 34 34 37 42 47 49 48 50 53 53 52 50 47 44 41 37 35 33 33 34 34 33 31 30 28
11 11 10 9 8 5 4 5 5 5 4 3 2 3 4 6 7 9 11 12 13 14 16 18 21 23 24 25 25 23 23 24 28 34 37 38 38 35 36 40 40 37 35 36 36 36 36 36 36 35 37 40 44 48 48 48 51 52 52 53 50 46 43 41 38 36 34 32 31 33 34 33 33 31
12 11 10 8 7 6 6 6 6 4 4 3 2 3 5 7 8 10 11 12 13 15 17 20 23 26 26 25 24 24 25 28 31 35 37 40 42 41 38 40 41 40 39 40 40 39 38 38 37 37 40 43 46 48 48 49 52 52 53 53 49 43 41 40 37 34 33 31 29 30 32 32 32 31
13 12 10 8 8 7 7 6 5 4 3 3 3 4 6 7 9 10 11 13 15 17 20 23 25 27 26 25 25 26 29 32 34 36 36 38 41 43 41 40 40 41 42 43 43 41 40 40 40 41 43 45 46 48 49 51 53 53 54 53 47 42 39 38 36 33 31 30 28 28 30 30 29 29
13 11 10 9 9 8 7 6 5 4 3 3 4 5 7 8 9 11 12 14 16 18 21 24 26 26 24 24 26 28 30 32 33 35 36 38 40 42 43 42 40 41 43 44 44 42 41 41 43 44 45 46 47 48 50 52 53 54 54 52 46 42 40 37 35 32 30 29 28 26 27 27 27 27
13 12 11 10 9 9 8 7 6 4 3 3 5 6 7 9 10 12 13 14 16 18 21 23 23 21 22 24 26 28 30 31 33 34 35 37 40 42 44 45 43 42 42 44 44 44 42 43 45 46 46 46 47 48 51 52 53 54 54 51 45 42 40 37 35 32 29 28 27 24 23 25 26 26
12 12 11 11 10 9 9 8 6 4 3 4 5 6 7 9 11 12 13 14 15 17 20 21 19 19 21 25 26 28 30 31 32 33 34 36 38 40 42 44 44 43 43 43 44 44 44 44 46 46 46 47 48 49 51 52 53 54 54 50 46 43 39 36 34 31 28 26 26 23 22 23 24 25
12 12 11 10 10 9 9 8 7 5 5 5 5 6 7 9 10 11 11 12 13 16 17 17 17 18 21 24 26 27 28 30 31 33 34 35 36 39 41 42 43 43 43 43 43 44 45 45 46 47 47 48 48 50 51 52 53 54 54 51 46 41 35 33 31 29 25 23 23 22 20 20 22 23
12 12 11 10 9 10 10 9 8 7 6 5 5 6 8 9 10 11 10 10 11 13 14 14 15 18 20 22 25 26 26 28 30 31 33 35 36 39 41 41 42 42 41 41 42 43 45 46 46 47 49 48 49 50 52 53 54 55 54 51 45 36 31 30 29 26 22 20 20 19 17 17 20 22
12 12 11 10 10 11 11 9 7 7 6 5 5 6 8 9 10 10 9 9 10 10 10 12 15 18 19 20 22 24 24 26 27 28 31 33 35 39 41 41 42 41 39 40 41 43 45 45 46 48 49 49 49 50 52 54 55 55 54 50 41 32 28 28 28 25 20 17 16 15 16 17 18 20
13 13 13 12 11 11 10 8 6 6 5 5 5 6 8 8 9 10 8 7 8 8 8 11 14 16 18 19 21 22 23 25 26 27 29 32 35 38 41 43 44 43 40 40 42 44 45 44 46 48 49 50 49 50 52 54 55 55 55 50 40 32 30 27 26 24 20 16 14 14 16 17 17 18
16 16 16 16 15 14 11 8 7 7 6 5 5 6 7 8 9 8 6 5 5 5 6 9 12 14 16 17 20 21 22 24 26 28 30 33 35 38 40 42 44 43 41 40 41 43 43 44 46 48 50 50 49 50 53 55 55 56 55 50 39 33 31 27 23 21 20 17 15 15 16 17 16 16
19 18 18 18 17 16 13 9 7 7 6 5 6 7 7 8 7 5 4 3 2 2 6 9 10 13 15 17 19 21 22 23 25 27 30 32 34 36 39 41 42 42 40 39 40 42 42 43 45 48 50 50 49 50 54 55 56 58 57 51 41 34 32 27 20 17 18 17 16 15 15 16 16 15
19 18 18 18 16 15 13 10 8 7 6 5 6 7 7 7 6 4 3 4 3 4 7 10 12 14 16 17 19 20 22 24 26 26 28 30 32 34 37 39 41 42 41 40 40 41 42 43 44 47 49 49 49 52 55 56 57 59 59 54 45 37 33 26 18 14 15 15 16 16 15 15 15 14
17 17 18 17 15 14 13 10 9 8 6 6 6 7 7 6 5 3 2 5 6 7 9 11 13 16 16 17 18 20 22 25 25 26 27 29 31 33 35 37 39 39 40 40 40 41 42 42 43 45 46 47 48 52 56 56 57 60 60 56 49 43 38 28 20 17 16 13 13 15 16 15 14 12
16 16 17 16 14 12 12 11 10 9 7 6 6 7 6 6 5 3 1 5 7 7 9 10 13 16 16 15 16 19 22 23 24 25 28 29 31 33 35 37 38 38 38 39 39 40 41 42 43 45 46 47 48 50 53 55 57 59 60 57 52 47 42 35 27 20 17 16 13 10 9 10 10 9
16 15 16 15 12 11 11 11 10 9 7 6 6 6 6 5 4 2 1 4 6 7 8 9 12 15 16 15 16 18 20 22 24 25 28 29 31 33 34 35 37 37 37 38 39 39 40 42 44 45 46 47 48 49 49 52 57 61 61 58 54 48 43 37 29 22 20 23 23 18 12 8 5 2
18 17 16 14 11 10 11 11 10 9 7 6 6 6 5 4 3 2 1 3 6 7 8 8 10 14 15 15 16 18 20 21 23 24 27 29 31 32 33 33 34 35 36 38 39 39 39 41 43 44 45 46 47 48 48 49 55 61 62 60 56 50 44 36 29 25 24 24 23 22 18 13 9 5
20 19 17 14 11 10 11 10 10 9 8 7 6 5 4 3 3 2 2 4 6 7 8 7 9 13 16 16 16 17 19 21 21 23 25 27 30 32 33 33 34 35 36 38 39 39 40 41 43 43 43 44 45 46 46 46 50 57 61 60 57 54 47 38 30 27 26 24 22 23 23 20 15 10
21 20 18 15 13 12 13 12 11 10 9 7 6 5 4 3 3 3 3 5 7 8 7 7 8 12 16 17 17 17 19 19 20 22 24 26 29 31 32 33 34 34 36 38 39 40 40 41 43 43 43 43 43 44 45 44 46 52 58 58 56 54 50 41 32 27 25 24 22 22 22 22 19 14
22 20 19 17 15 15 15 15 13 11 10 9 7 5 3 3 3 4 5 6 8 9 8 7 9 13 17 18 18 18 19 19 20 22 24 27 29 31 33 34 35 35 36 38 40 41 41 41 42 42 43 44 43 43 45 44 44 48 55 57 55 54 53 47 38 30 24 23 23 21 18 18 17 13
24 22 20 18 17 17 17 17 15 13 11 10 8 5 4 4 4 5 6 6 8 9 8 8 10 13 16 19 19 19 21 20 19 20 23 26 29 31 33 34 35 36 37 39 40 42 42 42 41 42 43 44 44 43 45 45 44 45 52 56 54 52 53 51 43 34 26 21 21 20 17 16 14 10
25 23 22 21 20 19 19 18 16 14 13 12 10 6 5 6 7 6 7 7 8 9 9 10 11 13 16 18 18 19 21 20 18 19 22 25 28 31 32 33 35 37 38 39 41 42 43 42 41 40 41 42 43 44 45 46 45 44 48 54 55 53 53 53 48 39 29 22 19 20 19 19 17 12
27 26 25 24 23 22 21 18 17 15 14 12 10 7 6 7 8 8 8 8 10 10 11 13 13 14 16 16 16 19 20 18 16 18 21 23 26 29 31 32 34 36 38 40 41 42 43 43 41 39 40 41 42 44 45 46 46 45 46 50 53 53 53 53 51 44 34 27 22 19 19 19 19 17
29 29 28 27 26 24 22 19 17 16 14 13 12 9 6 7 9 11 10 10 11 11 12 13 13 13 14 14 15 18 17 15 16 19 20 22 25 28 29 31 32 35 36 39 40 41 42 43 41 39 40 41 42 43 44 45 45 45 46 48 50 51 51 52 53 48 41 35 28 22 19 20 21 20
31 31 30 29 28 26 24 21 19 17 16 16 15 11 7 8 11 13 12 11 10 11 11 12 12 13 13 13 16 17 15 13 16 19 20 22 24 26 28 29 31 34 35 37 39 40 41 42 42 41 41 44 44 44 44 44 43 44 47 47 48 49 49 50 53 52 47 42 37 30 24 22 24 24
31 31 31 30 29 26 24 21 19 17 17 16 14 10 8 9 10 11 11 10 10 11 11 11 12 13 13 14 15 15 13 13 16 18 19 22 24 25 26 27 30 33 34 35 37 39 40 41 42 42 42 44 46 46 45 43 41 42 45 46 47 48 48 47 50 53 51 47 44 42 37 30 26 25
30 30 30 30 28 25 22 19 17 16 15 13 11 10 10 10 10 10 11 11 11 12 12 12 13 13 13 15 16 15 13 14 16 17 19 21 22 23 24 26 29 32 33 35 36 37 38 40 41 41 41 41 43 44 43 41 40 41 44 45 45 46 47 46 47 50 51 48 44 43 44 42 35 28
27 28 28 28 26 24 21 19 17 17 15 12 11 11 11 10 10 10 12 13 13 13 13 13 14 14 14 16 16 15 14 14 15 16 18 20 21 22 23 24 28 31 33 34 34 34 36 37 38 39 38 38 39 40 41 41 40 41 43 44 43 43 45 47 46 46 48 49 45 41 42 46 45 38
26 26 26 25 24 22 20 19 19 18 16 14 13 11 9 9 11 12 12 12 12 12 12 13 14 15 16 17 17 15 13 13 14 15 17 19 20 21 21 23 27 30 32 33 33 33 33 35 36 37 36 34 35 36 37 38 38 39 41 42 42 41 43 45 47 45 44 48 48 43 41 45 49 48
25 25 25 23 22 21 20 20 19 18 16 14 13 10 9 9 11 12 12 12 12 13 14 15 15 16 18 18 16 13 11 12 14 15 17 19 20 20 20 23 25 28 30 32 32 32 32 33 34 34 32 31 30 30 31 34 36 39 40 41 41 41 40 41 45 45 44 45 47 46 45 45 49 51
24 24 23 22 21 20 20 19 18 17 16 15 14 11 9 9 11 12 12 13 14 15 15 15 15 17 18 17 13 12 13 14 15 16 17 18 19 20 21 23 25 26 28 29 30 30 30 30 30 30 29 28 28 28 31 35 37 39 41 41 40 40 38 38 41 44 44 44 46 47 46 45 46 49
22 22 21 20 20 19 19 18 17 16 15 16 15 12 9 9 11 13 14 14 14 15 15 14 15 16 17 15 13 13 15 15 15 16 17 18 20 20 21 23 24 25 26 27 27 28 28 28 28 27 27 28 29 31 33 35 35 36 39 40 40 38 36 35 38 41 42 43 44 46 46 46 46 47
22 22 21 20 18 17 17 16 16 15 15 15 15 12 9 9 11 13 14 14 15 15 15 15 16 16 16 14 14 14 14 15 16 17 17 17 19 21 22 23 23 23 23 24 26 27 27 26 26 26 26 28 29 31 32 32 32 34 36 38 39 38 35 33 34 38 39 40 41 42 42 43 43 41
24 23 21 19 17 15 14 12 11 11 12 12 12 9 8 10 12 14 15 15 15 15 16 16 16 16 14 14 14 14 14 14 15 16 16 16 18 20 22 22 21 20 21 23 25 26 26 26 26 25 25 26 28 29 30 30 30 32 35 36 37 37 35 31 31 34 36 37 38 40 39 40 40 38
25 23 21 19 18 15 11 9 8 9 10 10 9 8 8 11 14 16 16 15 15 15 16 17 17 16 16 15 15 15 15 15 15 14 14 15 18 21 21 19 18 19 20 23 25 26 26 25 25 24 24 24 25 27 28 28 28 30 33 35 35 36 36 31 29 31 34 34 35 37 38 38 38 38
Wind_Direction
216 217 217 219 217 209 206 210 209 211 216 212 207 198 190 192 212 221 215 235 268 294 310 321 332 336 338 342 350 353 350 348 347 342 338 336 338 341 342 344 346 343 340 339 337 336 335 336 337 331 326 328 332 334 337 339 338 337 338 338 332 318 309 307 309 311 310 307 297 287 284 280 279 277
213 210 208 207 205 201 195 191 191 198 208 204 184 171 174 176 181 198 215 250 292 322 333 336 337 339 343 348 352 353 351 348 345 338 333 335 339 341 344 347 346 344 341 341 340 337 335 336 333 325 324 329 332 334 335 335 335 336 337 337 332 320 309 304 304 307 309 309 301 291 286 282 279 278
209 206 205 204 199 192 188 187 187 191 198 195 181 170 171 168 157 152 22 23 4 343 340 345 343 340 345 351 353 352 349 345 339 333 332 337 340 343 346 347 346 345 343 342 342 338 335 335 328 322 324 328 329 330 331 331 333 335 336 336 332 322 310 301 298 302 306 306 301 293 287 282 278 276
209 209 208 206 201 194 191 190 189 192 193 185 180 182 182 168 98 22 359 2 9 359 345 343 346 345 345 351 355 350 344 339 333 332 336 339 343 347 347 345 346 346 345 344 343 340 338 334 326 323 324 326 326 325 328 332 335 336 337 336 333 324 313 304 297 297 301 302 299 296 290 284 279 275
210 210 207 202 202 202 201 198 194 195 198 191 186 188 183 158 3 359 354 348 352 360 352 345 349 350 347 350 354 346 338 335 334 337 340 342 348 350 346 344 348 349 347 348 347 345 343 337 330 327 327 326 323 323 329 335 337 337 338 338 335 326 317 309 299 293 293 294 293 293 291 289 285 278
210 207 201 198 200 205 205 200 193 194 203 206 198 187 188 341 350 352 351 346 343 346 349 348 350 351 350 351 351 344 336 335 337 340 343 347 351 349 345 347 352 353 351 352 351 349 347 342 336 332 329 325 321 325 333 337 338 339 339 339 337 328 315 307 301 295 290 287 286 286 286 286 287 284
210 204 199 198 200 205 205 198 194 196 202 214 215 189 302 341 352 353 348 344 340 340 345 350 351 351 351 350 349 345 339 339 342 343 345 349 350 347 346 351 356 356 355 355 354 352 351 348 342 335 329 324 321 328 335 337 338 340 340 339 338 332 319 304 295 291 286 283 281 281 281 281 284 286
208 202 199 201 203 208 207 198 198 200 195 202 239 278 325 344 350 349 345 342 340 339 343 349 351 351 350 350 351 348 343 343 346 346 348 350 350 348 348 354 359 357 354 354 355 354 353 350 345 338 331 325 325 331 335 336 338 342 341 338 336 334 328 314 300 290 283 279 277 275 275 277 279 283
207 202 203 206 209 212 208 196 195 197 192 200 264 314 328 342 344 343 343 342 340 341 344 346 348 351 351 351 354 352 347 346 349 351 353 354 353 350 351 356 359 357 352 352 355 355 353 351 346 341 334 328 329 333 335 335 338 341 340 337 334 332 330 324 313 301 289 279 275 273 273 273 274 277
208 207 209 213 216 217 205 191 194 196 196 203 254 304 321 334 338 340 341 340 339 341 345 346 348 353 356 354 354 356 352 350 354 357 357 357 357 354 352 355 359 358 353 351 354 354 352 350 346 341 336 332 333 335 335 335 339 341 339 336 333 330 328 325 318 310 300 286 275 272 271 270 270 271
212 214 216 219 218 212 192 186 196 203 204 214 248 290 315 329 336 339 337 336 339 342 346 350 352 356 359 356 356 359 359 358 1 1 357 356 357 355 352 352 355 357 354 351 352 353 351 348 346 342 338 336 336 337 336 336 339 340 337 335 332 328 325 324 318 312 307 297 281 271 269 267 266 266
214 218 219 220 217 207 197 195 200 207 216 232 270 301 318 330 335 335 333 335 339 346 351 356 357 357 358 0 2 5 5 2 3 2 357 353 353 353 351 350 352 355 354 351 350 351 350 348 346 344 341 340 339 338 338 339 340 339 335 334 332 327 324 323 319 312 307 303 290 274 267 267 265 263
216 219 217 215 214 212 209 205 206 214 227 254 291 307 319 330 332 329 333 339 344 351 357 359 358 356 360 7 9 8 7 2 359 359 356 351 351 350 347 349 353 355 353 350 349 350 350 348 346 345 343 343 342 341 340 341 341 338 336 335 333 329 325 323 319 312 306 302 294 278 267 266 266 262
218 218 216 214 213 214 215 212 211 220 236 269 293 308 320 329 330 329 336 346 351 355 358 358 357 356 2 12 11 6 5 2 358 357 354 351 350 349 346 346 353 357 353 348 347 349 351 348 345 345 346 345 345 343 343 344 342 338 337 337 335 332 328 324 319 311 303 298 294 281 267 263 266 264
221 218 214 216 216 214 216 218 217 225 246 274 293 311 323 328 331 334 341 350 355 355 353 355 359 360 4 12 11 6 3 0 358 357 355 352 351 350 346 343 348 355 354 348 345 347 351 349 345 345 347 347 346 344 344 345 343 339 339 339 337 334 329 324 317 308 299 293 290 282 265 258 261 262
224 222 216 217 218 215 218 224 224 229 247 267 288 311 324 329 332 336 342 350 354 353 350 354 4 9 6 7 8 6 2 358 357 357 356 355 353 350 347 343 345 353 356 350 345 345 349 350 346 345 348 348 346 345 346 347 344 341 341 342 340 336 330 323 314 305 296 290 285 279 266 256 258 261
222 226 222 216 215 214 221 229 229 227 236 255 284 312 325 329 330 333 342 349 350 349 350 356 11 15 7 3 6 7 3 358 357 355 354 356 355 352 350 347 347 354 357 353 347 344 347 350 347 345 348 349 347 346 348 348 345 343 345 346 344 340 333 324 317 307 297 289 282 275 267 261 263 266
219 227 227 221 217 217 221 225 228 229 238 263 296 317 324 327 326 328 340 351 349 350 355 2 14 16 9 3 3 5 4 360 356 353 353 356 355 353 354 352 351 356 0 357 349 344 346 351 349 346 349 349 347 348 349 348 347 346 348 350 348 343 336 331 326 316 303 294 284 273 265 264 268 272
219 229 234 234 231 228 224 219 221 232 248 276 301 315 321 322 323 327 340 354 353 356 6 12 15 14 9 4 2 2 1 358 355 354 355 354 352 353 354 354 353 357 2 2 353 344 346 352 350 347 349 349 348 350 351 349 349 350 351 353 351 345 340 337 332 323 310 298 285 270 263 265 271 277
218 229 236 241 245 244 237 224 222 237 254 277 298 311 316 318 322 328 340 354 354 0 17 19 15 10 5 2 0 358 357 356 356 356 355 353 352 353 354 353 353 355 1 4 357 347 347 353 351 348 350 350 349 351 351 351 352 354 354 355 353 347 343 339 333 327 316 297 276 262 263 269 274 278
220 229 236 244 251 252 249 242 239 245 252 271 293 303 308 317 325 330 340 354 352 3 27 25 15 9 3 0 359 357 358 0 359 357 354 353 354 355 354 353 352 353 360 4 358 349 349 354 353 350 350 351 350 351 351 353 355 357 357 358 356 351 347 340 330 325 318 304 281 263 262 269 271 271
224 230 236 242 246 247 248 249 245 242 247 265 287 296 304 318 326 326 339 358 359 31 43 34 20 10 5 1 0 1 4 6 4 360 357 356 356 357 357 355 353 354 0 4 359 352 352 355 355 352 350 350 352 352 352 355 358 359 359 0 360 356 350 342 332 323 315 308 294 276 268 267 264 260
229 231 235 238 239 239 241 242 237 236 244 262 281 292 302 316 323 318 341 19 41 52 42 30 19 11 6 3 4 6 8 8 7 5 4 2 1 0 0 359 356 355 359 4 1 355 353 355 356 355 351 347 349 353 354 356 359 1 1 1 3 3 357 348 341 332 318 303 288 280 276 272 267 261
231 227 231 235 235 234 236 236 236 238 244 259 276 290 301 314 320 307 356 33 39 41 33 22 14 8 4 3 5 9 10 10 11 13 12 10 6 4 2 2 0 358 360 5 6 360 356 356 356 356 353 347 346 351 355 358 0 3 3 3 4 7 6 4 4 357 342 321 292 277 274 270 265 264
227 224 230 235 235 234 236 237 238 239 244 257 273 288 301 313 313 290 5 38 37 32 23 17 10 3 0 2 8 12 13 13 14 17 17 14 12 9 5 2 1 0 3 9 10 5 1 360 358 356 355 352 348 350 354 357 0 3 5 6 6 8 11 14 16 14 12 14 5 335 306 290 276 269
223 226 232 235 233 234 239 239 237 238 244 256 271 284 297 308 308 289 333 25 27 19 13 10 3 357 357 3 9 12 13 13 14 17 18 17 16 16 13 8 4 2 4 10 12 9 4 3 1 358 355 353 351 351 354 356 360 4 8 9 10 11 13 18 22 28 34 33 27 19 11 357 338 300
222 227 230 228 224 229 237 236 234 240 248 255 266 277 283 294 309 308 315 5 12 8 6 5 355 349 353 2 7 8 9 9 9 14 18 18 17 17 18 16 12 9 9 12 13 11 7 4 3 2 358 354 352 353 354 356 360 3 7 10 13 13 15 19 25 32 37 33 28 30 36 35 32 44
225 228 226 224 224 233 241 237 235 246 255 257 260 263 258 267 308 343 343 352 357 357 1 1 342 335 345 357 1 2 3 3 4 10 16 18 17 16 17 17 17 15 14 14 14 14 10 6 5 4 3 360 355 354 354 356 360 3 5 9 13 15 15 17 21 29 36 33 27 35 48 52 49 55
228 230 228 225 228 237 244 244 246 253 257 253 251 248 244 260 303 323 323 338 343 343 353 353 324 318 333 348 356 357 356 357 1 7 12 15 15 14 14 16 18 18 17 17 16 15 12 9 6 5 6 6 2 359 357 356 360 5 6 7 10 13 16 18 17 20 31 35 32 36 49 57 61 68
229 231 228 226 227 233 241 248 253 256 254 247 241 238 250 285 306 300 302 320 327 325 330 329 308 306 322 338 349 351 348 350 357 3 5 7 9 8 7 10 13 17 19 18 17 16 14 11 8 6 6 8 8 5 2 359 360 5 8 8 9 12 16 18 17 15 20 32 41 46 51 57 67 76
228 230 229 227 228 232 240 248 253 256 253 245 234 231 259 281 291 296 295 304 313 311 309 309 300 300 314 329 340 343 341 342 352 1 1 360 2 3 3 4 8 13 17 18 17 16 14 11 10 8 7 8 10 9 7 5 1 3 8 12 12 13 16 17 18 16 15 23 37 47 49 51 63 79
226 228 229 229 230 234 240 247 253 255 252 243 231 233 259 264 268 277 276 283 303 308 306 310 307 303 311 323 333 337 335 338 351 0 358 355 357 359 359 0 4 8 12 15 16 16 14 12 11 11 9 9 10 10 10 10 7 3 6 12 15 16 18 20 19 17 17 21 27 34 36 35 40 49
225 228 230 231 234 237 242 248 253 255 252 242 231 235 256 260 263 271 273 283 298 302 301 304 305 305 311 321 329 331 332 339 353 359 355 351 353 355 356 359 3 5 7 12 13 13 13 12 10 12 13 13 13 12 10 10 10 7 6 10 14 16 17 21 22 21 22 24 26 29 30 26 25 28
225 229 232 234 237 239 242 249 253 252 249 238 227 231 249 269 280 287 288 291 296 296 294 295 296 302 309 315 321 325 331 343 354 355 353 349 349 351 352 356 1 4 6 10 11 11 11 10 9 10 12 14 16 17 14 10 8 9 9 10 13 15 15 19 23 25 27 30 31 32 32 27 22 21
226 229 232 236 238 240 243 248 250 249 246 240 234 236 248 268 281 287 288 291 299 300 294 290 294 301 302 303 313 324 334 343 347 349 350 347 346 348 350 353 358 2 4 8 10 9 9 9 8 7 7 10 13 16 17 13 8 9 11 12 13 15 15 17 21 24 28 32 36 37 35 30 26 22
229 230 232 236 239 242 244 247 249 250 251 250 246 243 246 260 272 280 286 295 302 299 293 293 298 298 290 292 309 325 334 335 335 341 347 345 343 345 348 352 357 0 4 7 9 9 8 9 8 6 4 5 6 8 12 14 11 9 11 13 13 15 16 17 20 23 26 30 36 40 40 38 33 28
228 229 232 236 239 241 243 246 248 247 250 252 246 239 246 260 270 279 288 294 293 291 293 295 295 288 282 289 306 322 331 328 327 335 342 342 341 342 345 350 355 359 3 6 8 9 9 8 9 8 5 4 4 2 5 12 15 13 11 12 13 15 16 16 18 22 24 26 31 37 40 41 41 39
226 228 231 234 237 239 241 242 243 243 241 233 227 233 248 259 263 273 286 290 288 289 292 288 284 283 283 290 303 316 322 322 326 335 339 338 339 341 344 347 352 356 360 2 5 8 10 9 9 9 7 5 4 1 0 6 13 14 13 12 12 14 17 18 17 19 22 25 28 33 37 39 41 42
226 228 231 233 235 237 239 240 242 245 241 228 224 238 257 263 266 274 283 285 282 282 283 282 284 286 287 292 302 311 315 320 329 335 336 334 337 342 343 344 348 352 355 357 1 5 8 9 9 9 8 7 6 3 1 4 9 14 14 12 11 13 16 19 19 18 20 22 25 29 34 36 37 39
227 229 231 233 234 235 238 240 243 248 246 235 228 239 257 266 269 271 276 281 281 280 282 287 288 287 290 296 303 306 311 321 328 329 329 332 337 342 342 341 344 348 349 352 357 1 5 7 7 7 8 8 6 5 7 8 11 14 15 14 13 12 14 18 20 19 19 20 23 26 30 33 34 36
230 230 232 234 235 236 240 244 247 250 248 236 226 232 253 268 271 271 275 281 283 281 282 284 283 287 295 300 301 302 308 316 320 319 322 330 337 341 340 340 343 346 347 348 353 357 0 4 5 5 8 9 7 8 11 10 9 10 12 14 14 13 13 17 20 20 19 19 21 24 28 29 31 34
234 235 236 236 238 240 243 247 249 250 245 234 228 235 255 268 270 272 275 279 280 281 281 282 284 292 299 300 297 299 304 308 312 313 318 327 334 337 339 341 343 345 345 347 350 353 356 0 2 2 5 9 9 10 10 8 5 6 8 11 14 14 13 15 19 21 21 20 21 22 25 27 30 31
237 238 239 239 240 242 245 248 250 250 245 234 227 232 250 262 265 270 274 277 280 281 282 285 290 294 295 294 293 295 299 303 308 310 313 322 329 333 336 338 340 343 345 346 348 351 355 358 360 360 2 7 9 9 8 7 6 6 7 8 10 13 15 16 18 21 22 22 23 24 24 26 29 30
238 239 239 238 237 235 235 239 240 236 231 224 220 229 256 269 271 273 276 278 280 280 282 287 291 292 290 289 290 293 298 304 308 310 313 319 325 328 330 334 338 342 344 345 347 350 354 357 358 357 0 5 7 7 6 6 6 6 7 7 7 10 14 16 18 21 21 21 23 25 25 26 29 32
240 241 241 238 231 223 220 227 226 210 202 208 220 237 259 268 270 270 270 271 275 279 283 286 288 290 290 289 290 294 298 301 306 310 312 316 319 323 327 332 337 340 343 345 346 348 352 355 356 356 358 1 4 5 5 5 6 5 5 5 6 9 12 14 17 21 22 20 20 23 25 26 28 30